Theta_e
309 309 309 310 310 310 310 311 311 311 311 313 314 314 315 318 318 319 325 322 322 318 320 321 323 323 322 323 323 324 328 334 334 331 331 331 333 336 336 339 337 342 338 337 346
309 309 309 310 310 310 311 311 311 311 312 313 314 314 317 319 319 325 325 320 317 320 320 323 324 325 323 325 324 326 331 335 333 330 329 330 331 335 334 335 338 341 344 343 345
310 310 310 310 311 310 311 311 311 311 312 314 315 315 317 318 322 326 321 317 320 320 321 323 324 324 324 326 326 328 332 335 330 328 328 328 329 330 331 333 336 336 335 347 344
310 310 310 310 311 311 311 311 311 312 313 315 314 316 317 318 329 323 317 319 320 320 321 324 325 325 326 326 327 329 331 330 329 327 327 328 329 330 330 332 335 334 338 339 347
309 310 310 310 310 311 311 311 312 312 314 315 314 316 318 325 326 320 318 320 320 320 323 324 325 326 327 328 328 328 331 329 328 327 327 328 328 329 329 330 334 335 341 334 335
313 313 313 312 312 312 312 312 312 313 314 314 314 317 319 328 323 320 321 321 322 322 323 323 325 324 326 326 327 329 330 328 327 328 328 328 328 329 330 332 332 329 338 341 338
315 315 314 314 316 317 316 313 313 313 314 314 316 317 322 326 323 322 321 322 322 322 323 323 323 324 325 327 326 328 328 329 328 328 328 327 327 328 330 329 328 328 328 336 338
315 316 318 319 320 320 320 320 314 313 314 316 317 317 328 322 322 322 322 322 322 322 322 322 322 323 324 325 326 326 327 329 330 328 327 327 326 331 330 330 329 328 339 348 341
315 318 319 320 320 321 321 318 314 314 317 318 319 322 329 323 323 322 322 323 323 322 321 321 321 323 325 326 325 327 326 328 329 328 328 328 327 330 330 330 330 330 349 348 341
313 317 319 322 322 323 322 318 315 317 318 318 321 325 326 325 323 321 321 321 322 323 324 324 325 326 327 326 327 327 327 327 327 329 329 328 327 329 330 331 331 336 348 343 339
313 315 319 323 322 323 325 327 327 325 327 328 327 327 324 324 323 323 322 323 323 325 328 327 328 329 328 327 327 327 327 327 328 329 328 328 328 329 330 332 333 337 345 340 337
313 314 317 321 323 323 326 328 326 327 327 328 325 325 325 324 325 324 323 325 326 329 327 329 329 328 327 327 327 328 328 329 329 329 328 328 328 329 332 335 335 345 343 339 336
313 314 316 320 321 325 327 325 326 326 330 327 324 324 324 325 326 325 324 326 327 328 328 329 329 327 326 328 328 330 330 330 328 327 328 328 328 329 336 338 336 339 339 336 334
313 314 315 319 323 326 328 325 326 327 333 326 325 325 325 325 325 324 324 326 327 328 328 328 328 326 327 329 328 329 329 328 328 329 328 329 329 336 338 331 330 337 335 335 333
312 314 314 318 325 327 328 325 326 328 343 328 325 325 326 326 326 325 324 326 328 328 328 331 329 328 330 329 328 329 329 329 327 327 328 326 331 333 340 335 339 335 332 329 326
312 313 314 325 319 324 323 325 326 333 338 330 327 326 326 326 326 326 326 326 326 327 328 329 328 328 328 328 328 329 327 327 328 328 328 330 331 342 344 342 336 330 326 322 322
312 313 314 315 324 324 324 326 331 333 335 330 326 327 327 326 326 327 328 328 329 330 332 332 330 330 330 330 329 327 328 327 329 330 324 326 331 343 337 334 332 329 324 320 319
312 313 320 319 323 324 326 329 331 332 331 330 328 328 327 328 327 327 327 328 330 330 329 332 334 332 331 329 328 326 327 327 330 329 324 330 332 341 332 329 329 325 321 317 317
312 322 325 324 323 325 328 331 330 332 331 329 329 327 327 328 328 329 328 329 331 330 330 330 332 330 329 328 326 328 328 328 330 328 329 330 340 336 332 330 328 325 321 318 317
312 323 326 322 324 326 330 330 329 329 329 328 329 330 330 331 331 329 332 332 331 330 329 329 331 330 328 327 327 329 326 328 330 329 326 326 332 335 333 334 328 324 322 320 319
319 325 326 323 324 325 330 329 327 326 326 328 329 332 331 329 331 330 332 332 331 330 328 330 331 329 326 327 328 327 327 328 328 328 329 328 331 329 330 330 326 323 321 319 318
325 326 326 322 325 326 328 329 325 324 325 326 327 329 329 331 333 331 333 333 329 327 329 330 330 328 327 326 329 329 329 329 327 327 326 327 330 328 326 326 324 322 320 320 319
326 323 324 322 330 331 326 326 324 324 325 326 328 328 329 330 330 330 330 328 327 329 331 329 328 329 327 326 329 328 329 328 327 328 326 326 333 326 325 323 322 321 321 320 319
326 326 326 324 325 329 329 327 325 324 322 324 325 327 328 328 328 329 328 329 328 327 324 327 330 331 330 327 326 326 325 325 328 330 328 329 330 328 325 324 322 321 320 319 317
325 326 326 329 330 328 326 327 326 325 324 324 326 326 326 329 330 330 330 329 329 326 327 332 332 328 327 326 324 324 325 327 328 328 331 329 329 326 323 322 321 319 318 317 316
319 323 325 322 325 325 322 325 326 326 325 328 327 328 328 331 332 333 331 331 333 330 331 331 328 325 324 324 324 325 327 328 328 329 329 328 325 322 321 319 321 318 317 315 314
320 322 321 322 324 324 325 327 326 325 325 324 327 327 331 329 327 326 326 326 325 326 327 329 328 326 328 328 329 329 329 327 328 327 326 326 323 322 321 321 320 318 316 314 312
Wind_Speed
3 4 4 5 5 5 5 5 6 6 6 6 6 8 9 8 4 3 3 5 8 8 3 4 9 8 11 13 16 18 12 11 18 2 7 9 7 7 4 14 24 12 26 28 24
2 2 2 3 4 4 5 5 6 6 6 5 6 8 8 7 9 10 11 10 10 7 6 11 17 7 14 14 9 16 8 10 10 10 10 4 1 13 4 7 9 20 24 35 28
2 1 1 1 2 3 4 5 6 6 5 5 6 7 9 9 10 3 6 7 8 6 6 11 9 10 18 12 11 17 11 16 5 9 9 13 10 4 11 10 5 10 35 33 21
3 3 2 2 2 3 4 5 5 5 4 5 6 6 10 7 3 1 3 8 6 4 8 15 11 14 15 4 16 10 4 8 11 8 7 10 10 9 7 4 9 16 28 16 6
3 3 2 2 2 3 3 4 5 4 4 4 6 6 6 8 9 1 6 5 4 6 13 14 11 13 11 8 3 10 13 4 3 6 3 10 9 8 14 10 7 3 33 33 24
5 4 3 3 3 3 3 3 4 4 4 4 5 6 6 15 2 4 4 4 5 11 13 9 10 13 11 8 7 7 14 8 4 2 6 4 16 18 3 10 14 16 18 26 21
6 4 3 3 3 3 4 3 3 3 3 3 4 8 9 13 4 5 5 6 6 6 10 6 7 12 15 11 5 9 10 13 13 5 3 4 17 11 12 8 10 13 19 7 11
6 4 4 5 5 6 6 5 4 3 3 3 5 5 9 4 6 8 8 7 6 7 8 9 9 13 15 14 9 10 12 15 11 7 7 3 11 12 9 11 14 15 20 34 28
6 5 5 6 7 7 4 1 1 3 3 3 2 6 14 5 3 7 9 8 6 8 9 10 11 15 16 14 14 13 10 16 10 6 1 7 10 10 7 7 12 10 26 30 32
8 5 4 6 8 7 2 3 4 3 4 6 9 8 12 2 2 2 6 7 7 8 10 11 14 14 15 12 8 14 8 7 1 12 8 9 15 11 6 7 7 11 23 27 30
10 6 3 4 6 7 4 6 4 4 11 13 4 11 2 3 2 4 4 6 9 12 14 21 12 4 14 11 10 13 10 9 9 8 8 9 13 9 10 5 4 8 22 25 27
11 8 4 3 4 5 7 4 5 8 12 20 7 9 4 3 5 4 3 12 14 12 4 11 3 11 7 7 9 10 10 12 12 15 13 15 19 18 8 14 11 20 22 23 23
11 8 4 5 4 2 4 5 8 8 9 8 8 9 8 8 5 8 7 8 11 7 7 8 9 5 6 10 7 12 11 12 14 16 17 20 17 20 19 33 43 37 32 25 22
10 7 4 4 7 7 5 6 8 5 5 9 8 5 5 7 6 2 4 8 5 9 6 6 10 5 7 4 8 8 12 14 16 17 16 19 15 12 18 23 25 12 25 20 19
10 6 4 6 5 10 5 8 8 4 5 14 10 7 9 10 7 7 2 7 11 10 6 3 7 8 10 14 9 12 14 14 21 21 20 19 3 3 17 16 15 17 21 19 15
9 6 2 4 4 6 8 10 7 6 5 7 5 8 8 10 5 6 5 4 3 8 5 3 1 4 9 7 11 8 17 20 21 19 13 0 4 9 12 17 15 16 17 14 13
9 5 3 3 6 8 9 8 6 8 8 7 6 7 13 9 2 2 4 6 5 5 3 11 4 6 3 10 12 15 16 9 12 9 11 12 4 9 14 16 17 12 11 11 17
7 3 3 4 7 8 6 8 8 3 4 8 7 2 9 9 4 1 5 10 5 7 10 9 5 11 5 9 11 16 12 8 14 12 15 13 6 5 11 16 21 17 13 14 17
5 2 2 3 6 5 9 8 6 11 12 8 7 7 10 6 6 5 9 5 5 9 7 10 4 15 5 2 9 7 8 14 12 16 11 0 8 7 6 9 15 15 14 14 12
5 5 5 4 5 4 7 13 7 5 6 7 11 9 9 4 10 10 8 9 4 5 8 9 10 13 16 17 8 8 14 6 10 9 12 14 8 8 1 13 12 14 14 12 13
5 6 2 2 5 8 8 5 2 9 7 6 11 14 9 12 3 12 2 6 8 7 9 9 7 12 16 14 10 12 11 10 6 7 10 10 6 15 18 17 8 17 23 15 9
5 5 3 2 8 10 5 7 4 8 6 7 6 11 11 13 10 9 11 9 5 7 9 10 4 8 17 20 13 8 10 5 4 8 8 11 4 12 13 14 10 14 15 8 4
10 11 2 1 4 6 5 4 3 7 4 7 7 4 9 7 7 8 5 9 4 7 5 9 6 9 12 7 9 6 8 9 11 6 9 11 4 11 6 9 13 11 6 7 7
7 4 4 3 6 7 10 5 2 4 10 5 9 10 7 10 9 6 13 7 8 11 7 4 5 11 12 17 18 18 15 15 10 3 16 9 5 4 6 8 12 13 10 11 11
5 5 5 5 9 11 5 9 7 5 3 4 7 7 9 8 11 8 7 11 7 2 1 4 9 12 15 18 19 19 15 13 17 14 8 8 15 17 10 11 8 7 7 10 11
8 7 12 13 6 9 1 7 7 4 2 9 3 6 7 7 12 11 8 7 7 10 7 9 10 14 17 18 19 18 9 9 14 12 10 11 9 6 15 12 4 8 14 15 16
10 7 7 8 5 7 5 1 2 9 1 6 10 10 10 11 8 9 7 4 8 7 8 8 9 10 14 17 18 5 11 12 10 12 8 7 4 7 7 17 15 14 13 14 15
Wind_Direction
272 262 258 260 263 263 264 265 267 272 282 294 309 315 314 306 221 242 246 221 239 271 260 317 258 270 259 263 244 256 265 339 292 324 110 127 262 322 83 160 230 163 156 178 168
319 281 264 252 245 247 256 262 269 275 282 293 308 317 313 286 236 267 247 277 251 212 260 287 282 247 252 246 228 248 241 216 320 35 339 10 272 190 211 222 195 147 146 154 168
13 335 278 279 285 276 269 269 271 276 280 294 311 311 305 294 298 168 266 239 194 233 261 298 296 278 263 258 241 241 269 220 71 30 344 325 309 220 312 302 198 107 309 143 163
3 358 345 328 300 280 276 275 275 275 275 298 309 302 303 280 320 23 278 179 196 256 295 278 261 256 253 237 246 277 336 357 359 8 313 272 319 343 281 314 164 208 158 196 133
6 352 343 339 316 299 292 284 279 273 272 294 303 305 300 277 254 357 166 174 195 270 280 293 283 255 278 222 219 257 285 101 26 276 292 352 297 293 318 346 172 165 168 161 52
21 13 5 351 334 321 303 291 277 258 258 282 287 304 306 281 69 143 131 219 275 262 296 289 338 338 304 323 285 232 277 300 255 58 269 301 311 311 317 343 335 325 187 166 181
7 5 20 29 22 4 342 317 285 260 254 247 268 303 275 267 253 214 208 236 273 279 288 340 313 303 311 267 238 305 277 254 224 192 40 352 281 280 35 10 322 309 303 270 102
9 12 11 357 346 335 317 297 278 244 203 216 265 290 266 302 237 222 230 252 250 265 275 286 289 282 279 288 278 241 251 267 210 131 134 228 304 80 36 348 327 329 44 57 58
8 360 357 356 353 344 338 328 156 162 180 229 257 276 269 276 196 209 224 250 257 274 276 275 269 262 261 242 247 216 243 242 147 130 37 288 292 129 103 17 323 330 67 67 66
6 350 351 6 11 15 40 107 139 160 258 253 232 270 251 220 34 212 218 252 261 267 255 240 249 244 230 237 346 344 267 352 113 82 36 326 302 300 46 50 344 38 67 70 73
6 344 327 0 11 5 357 318 258 233 217 252 226 254 150 123 173 203 186 210 239 247 251 217 243 329 21 13 334 319 337 329 318 49 2 307 290 276 259 124 41 74 82 76 70
359 352 295 292 341 324 329 273 7 318 291 235 252 273 271 286 204 171 218 245 224 254 261 252 251 55 0 349 307 305 308 21 332 358 333 306 286 270 149 91 52 80 76 66 70
353 353 321 250 284 244 347 347 334 313 276 177 209 216 190 232 287 143 238 284 282 258 315 323 72 37 302 284 353 340 10 7 328 318 298 283 295 308 103 62 55 25 63 56 55
347 346 328 252 280 272 247 333 336 327 271 143 188 209 181 226 193 342 281 294 260 330 344 310 57 324 280 18 19 340 5 324 306 302 293 297 285 96 84 78 84 82 62 67 63
340 331 327 260 287 326 308 315 319 310 303 157 143 135 198 238 123 150 274 277 290 10 280 63 12 341 16 22 1 316 321 305 309 292 281 280 7 138 113 93 98 76 69 66 72
334 317 333 352 285 292 315 306 298 238 301 136 153 191 206 225 205 107 219 300 333 296 273 357 169 292 19 322 327 329 346 309 289 275 263 148 255 60 29 95 82 73 67 72 83
328 304 286 266 320 306 311 293 234 253 232 144 187 186 211 158 191 236 183 236 318 306 64 261 139 76 346 349 353 352 317 321 321 347 322 335 1 71 87 90 104 102 86 96 91
324 301 276 254 309 309 303 262 270 289 35 29 343 217 278 133 215 102 269 263 117 326 322 356 99 277 59 8 342 320 338 319 326 319 302 343 341 96 111 104 99 110 118 105 82
328 304 296 278 304 320 281 242 259 2 18 354 307 273 227 176 251 194 244 281 87 360 356 325 291 355 103 2 314 342 329 319 291 278 298 162 80 90 83 110 108 104 90 84 84
320 271 215 315 289 301 270 271 312 23 346 305 280 319 300 112 280 243 29 2 50 14 1 319 320 326 321 336 359 263 339 325 335 329 307 316 101 54 69 136 104 105 99 101 86
335 255 56 324 274 262 254 334 35 75 329 317 310 328 327 313 283 318 115 90 26 38 330 347 3 320 317 312 341 333 330 339 351 316 318 332 40 39 38 95 63 99 92 97 79
326 290 27 348 250 236 264 7 14 316 323 291 296 299 312 329 331 335 60 70 42 351 350 59 332 300 315 304 43 339 318 323 313 314 318 306 314 29 52 69 115 99 103 91 43
325 304 359 286 275 293 134 290 342 316 318 320 307 326 321 319 315 305 15 98 62 56 39 0 346 318 318 290 85 284 254 298 307 337 284 299 25 52 48 83 84 113 122 64 2
307 301 158 237 302 303 357 282 165 142 287 290 291 317 288 286 277 248 278 84 70 74 81 19 299 301 304 323 316 312 316 312 5 90 295 49 42 143 207 97 74 45 47 59 46
296 30 357 330 27 340 347 325 307 281 158 287 299 249 292 310 296 301 59 78 116 34 34 58 300 317 309 304 303 291 324 20 289 21 49 23 42 10 32 33 53 35 70 57 12
342 350 344 286 319 290 206 271 293 331 2 324 266 345 312 27 23 33 16 37 140 250 349 346 310 306 300 292 292 304 76 329 38 32 51 68 77 23 316 346 51 35 41 15 14
352 330 288 303 244 262 275 158 12 6 61 315 344 324 48 34 11 2 346 323 327 330 344 337 312 307 296 314 304 355 5 28 75 59 19 3 240 222 313 54 41 27 20 15 12